Location: *
(46.1200°N, 11.2700°E)
Time: 02:58:56
(UTC+00:00)

ASTEX 1 - Pass Details

Date: 02 March 2021
Orbit: 721 x 743 km, 92.7° (Epoch: 20 April)

Event Time Altitude Azimuth Distance (km) Brightness Sun altitude
Rises 18:28:14 0° 14° (NNE) 3,151 6.6 -15.6°
Reaches altitude 10° 18:30:46 10° 24° (NNE) 2,222 5.7 -16.0°
Maximum altitude 18:35:09 32° 88° (E) 1,226 4.0 -16.8°
Enters shadow 18:36:23 28° 116° (ESE) 1,331 4.2 -17.0°
